Weather History for KALS - June, 2013

Change the Weather History Date:

Friday, June 14, 2013

  Actual Average Record
Temperature  
Mean Temperature 67 °F 59 °F  
Max Temperature 85 °F 78 °F 88 °F (1952)
Min Temperature 49 °F 40 °F 24 °F (1944)
Degree Days  
Heating Degree Days 0 6  
Month to date heating degree days 63 106  
Since 1 June heating degree days 63 106  
Since 1 July heating degree days 9004 8532  
Cooling Degree Days 2 0  
Month to date cooling degree days 3 0  
Year to date cooling degree days 3 0  
Since 1 June cooling degree days 3 0  
Growing Degree Days 19 (Base 50)    
Moisture  
Dew Point 34 °F    
Average Humidity 36    
Maximum Humidity 59    
Minimum Humidity 12    
Precipitation  
Precipitation 0.00 in 0.01 in 0.50 in (1933)
Month to date precipitation T 0.20  
Year to date precipitation 1.06 2.42  
Snow  
Snow 0.00 in 0.00 in 0.00 in (2002)
Month to date snowfall 0.0 0.0  
Since 1 June snowfall 0.0 0.0  
Since 1 July snowfall 21.1 27.6  
Snow Depth 0.00 in    
Sea Level Pressure  
Sea Level Pressure 29.90 in    
Wind  
Wind Speed 11 mph (South)    
Max Wind Speed 28 mph    
Max Gust Speed 37 mph    
Visibility 10 miles    
Events Thunderstorm    
T = Trace of Precipitation, MM = Missing Value Source: NWS Daily Summary

Daily Weather History Graph

Daily Weather History Graph

Search for Another Location

Airport or City:

Trip Planner

Search our weather history database for the weather conditions in past years. The results will help you decide how hot, cold, wet, or windy it might be!

Date:

Astronomy

Jun. 14, 2013 Rise Set
Actual Time 5:41 AM MDT 8:25 PM MDT
Civil Twilight 5:10 AM MDT 8:56 PM MDT
Nautical Twilight 4:32 AM MDT 9:35 PM MDT
Astronomical Twilight 3:48 AM MDT 10:19 PM MDT
Moon 11:13 AM MDT (6/14) No Moon Set
Length of Visible Light 15h 45m
Length of Day
14h 43m
Waxing Crescent, 31% of the Moon is Illuminated
Jun 14
Waxing Crescent
Jun 16
First Quarter
Jun 23
Full
Jun 29
Last Quarter
Jul 8
New

Hourly Weather History & Observations

Time (MDT) Temp. Dew Point Humidity Pressure Visibility Wind Dir Wind Speed Gust Speed Precip Events Conditions
12:52 AM 61.0 °F 39.9 °F 46% 29.94 in 10.0 mi Variable 4.6 mph - N/A   Mostly Cloudy
1:52 AM 62.1 °F 37.9 °F 41% 29.92 in 10.0 mi SSW 8.1 mph - N/A   Mostly Cloudy
2:52 AM 59.0 °F 39.0 °F 48% 29.94 in 10.0 mi SE 5.8 mph - N/A   Overcast
3:52 AM 57.9 °F 39.0 °F 49% 29.94 in 10.0 mi SSE 8.1 mph - N/A   Overcast
4:52 AM 55.9 °F 39.0 °F 53% 29.94 in 10.0 mi SSE 8.1 mph - N/A   Mostly Cloudy
5:52 AM 54.0 °F 39.0 °F 57% 29.95 in 10.0 mi ESE 11.5 mph - N/A   Mostly Cloudy
6:52 AM 55.0 °F 39.0 °F 55% 29.96 in 10.0 mi SE 6.9 mph - N/A   Clear
7:52 AM 57.9 °F 39.9 °F 51% 29.96 in 10.0 mi South 4.6 mph - N/A   Clear
8:52 AM 63.0 °F 42.1 °F 46% 29.95 in 10.0 mi South 6.9 mph - N/A   Clear
9:52 AM 73.0 °F 37.9 °F 28% 29.91 in 10.0 mi South 8.1 mph - N/A   Clear
10:52 AM 77.0 °F 37.0 °F 24% 29.88 in 10.0 mi South 10.4 mph - N/A   Clear
11:52 AM 81.0 °F 32.0 °F 17% 29.84 in 10.0 mi South 13.8 mph 19.6 mph N/A   Clear
12:44 PM 80.6 °F 28.4 °F 15% 30.17 in 10.0 mi SW 24.2 mph 36.8 mph N/A   Scattered Clouds
12:52 PM 79.0 °F 26.1 °F 14% 29.84 in 10.0 mi WSW 16.1 mph 36.8 mph N/A   Scattered Clouds
1:16 PM 82.4 °F 28.4 °F 14% 30.16 in 10.0 mi WSW 9.2 mph - N/A Thunderstorm Partly Cloudy
1:37 PM 84.2 °F 28.4 °F 13% 30.16 in 10.0 mi WSW 15.0 mph 20.7 mph N/A   Clear
1:52 PM 84.0 °F 27.0 °F 13% 29.80 in 10.0 mi SW 11.5 mph 19.6 mph N/A   Clear
2:32 PM 78.8 °F 33.8 °F 20% 30.14 in 10.0 mi SSE 20.7 mph 28.8 mph N/A   Clear
2:52 PM 75.0 °F 36.0 °F 24% 29.84 in 10.0 mi SSE 20.7 mph 27.6 mph N/A   Partly Cloudy
3:52 PM 79.0 °F 36.0 °F 21% 29.81 in 10.0 mi SSE 21.9 mph 29.9 mph N/A   Scattered Clouds
4:52 PM 75.9 °F 37.9 °F 25% 29.80 in 10.0 mi SSE 20.7 mph 25.3 mph N/A   Partly Cloudy
5:52 PM 79.0 °F 36.0 °F 21% 29.77 in 10.0 mi SSE 15.0 mph 21.9 mph N/A   Clear
6:52 PM 75.9 °F 37.0 °F 24% 29.78 in 10.0 mi SSE 18.4 mph - N/A   Clear
7:52 PM 78.1 °F 25.0 °F 14% 29.76 in 10.0 mi West 9.2 mph - N/A   Clear
8:52 PM 66.9 °F 27.0 °F 22% 29.80 in 10.0 mi West 8.1 mph - N/A   Clear
9:52 PM 66.0 °F 25.0 °F 21% 29.79 in 10.0 mi WNW 8.1 mph - N/A   Clear
10:52 PM 63.0 °F 30.0 °F 29% 29.83 in 10.0 mi NE 8.1 mph - N/A   Clear
11:52 PM 54.0 °F 35.1 °F 49% 29.85 in 10.0 mi NE 6.9 mph - N/A   Clear